This demonstration page uses our WeatherBlox Daily Observations layout. Learn more.

Left ArrowRight Arrow

Hourly Observations for January 14, 2022

Temp ( °F °C ) Dew Point ( °F °C ) Humidity (%) Winds ( mph kmh ) Pressure ( in mb ) Visibility ( mi km ) Precip ( " mm )
12:53 am 00:53 Mostly Clear 45 7.2 32 0 61 61 Calm 30.02 1017 10 16 0.00 0.00
1:53 am 01:53 Mostly Clear 45 7.2 33 0.6 63 63 E 3 6 30.01 1016 10 16 0.00 0.00
2:53 am 02:53 Partly Cloudy 42 5.6 33 0.6 71 71 Calm 30.01 1016 10 16 0.00 0.00
3:53 am 03:53 Partly Cloudy 41 5 33 0.6 73 73 Calm 29.99 1016 10 16 0.00 0.00
4:53 am 04:53 Mostly Clear 42 5.6 33 0.6 71 71 Calm 29.97 1015 10 16 0.00 0.00
5:53 am 05:53 Partly Cloudy 42 5.6 33 0.6 71 71 SE 5 7 29.97 1015 10 16 0.00 0.00
6:53 am 06:53 Mostly Cloudy 45 7.2 31 -0.6 58 58 SE 5 7 29.97 1015 10 16 0.00 0.00
7:53 am 07:53 Mostly Cloudy 46 7.8 31 -0.6 56 56 SE 5 7 29.96 1015 10 16 0.00 0.00
8:53 am 08:53 Mostly Cloudy 55 12.8 31 -0.6 40 40 ESE 12 19 29.96 1015 10 16 0.00 0.00
9:53 am 09:53 Mostly Cloudy 57 13.9 31 -0.6 37 37 SE 13 20 29.96 1014 10 16 0.00 0.00
10:53 am 10:53 Mostly Cloudy 62 16.7 32 0 32 32 S 9 15 29.94 1014 10 16 0.00 0.00
11:53 am 11:53 Mostly Cloudy 65 18.3 32 0 29 29 SE 13 20 29.88 1012 10 16 0.00 0.00
12:53 pm 12:53 Mostly Cloudy 70 21.1 34 1.1 27 27 SSE 9 15 29.83 1010 10 16 0.00 0.00
1:53 pm 13:53 Mostly Cloudy 73 22.8 30 -1.1 20 20 S 17 28 29.78 1008 10 16 0.00 0.00
2:53 pm 14:53 Mostly Cloudy 74 23.3 29 -1.7 19 19 S 14 22 29.74 1007 10 16 0.00 0.00
3:53 pm 15:53 Mostly Cloudy 72 22.2 30 -1.1 21 21 S 12 19 29.74 1007 10 16 0.00 0.00
4:53 pm 16:53 Mostly Cloudy 71 21.7 31 -0.6 23 23 SSE 13 20 29.72 1006 10 16 0.00 0.00
5:53 pm 17:53 Mostly Cloudy 70 21.1 33 0.6 26 26 SSE 16 26 29.71 1006 10 16 0.00 0.00
6:53 pm 18:53 Mostly Cloudy 69 20.6 33 0.6 26 26 SSE 13 20 29.71 1006 10 16 0.00 0.00
7:53 pm 19:53 Mostly Cloudy 67 19.4 33 0.6 28 28 SSE 13 20 29.71 1006 10 16 0.00 0.00
8:53 pm 20:53 Mostly Cloudy 66 18.9 35 1.7 32 32 SSE 13 20 29.70 1006 10 16 0.00 0.00
9:45 pm 21:45 Mostly Cloudy 63 17.2 35 1.7 35 35 WNW 13 20 29.74 1007 10 16 0.00 0.00
9:53 pm 21:53 Partly Cloudy 64 17.8 35 1.7 34 34 W 7 11 29.74 1007 10 16 0.00 0.00
10:53 pm 22:53 Partly Cloudy 61 16.1 29 -1.7 30 30 WNW 18 30 29.75 1008 10 16 0.00 0.00
11:53 pm 23:53 Mostly Cloudy 53 11.7 35 1.7 51 51 NNW 33 54 29.80 1009 7 11 0.00 0.00

Powered by AerisWeather